Torna al catalogo

STARLINK-35176

AttivoComunicazioniSSO
NORAD 65662·PAYLOAD·🇺🇸 United States

Lanciato Sep 19, 2025 da Vandenberg Space Force Base

Loading…

Prossimi Passaggi (prossime 24 ore)

TLE

AggiornatoSource: CelesTrak SupGP

Epoca: Sep 14, 2026, 23:14 UTC

1 65662C 25211L   26257.96854167  .00050458  00000+0  15670-2 0  2573
2 65662  97.2837 298.3486 0001079  86.8606 150.6345 15.33401410    11

Traccia STARLINK-35176 in tempo reale con AllMySat

Download on the App Store